[[{"header":{"parameterUnit":"m.s-1","parameterCategory":2,"la1":30.2991,"la2":30.254,"lo1":-89.0895,"lo2":-89.0444,"dy":0.0017,"dx":0.0017,"nx":28,"ny":28,"refTime":"2023-03-29T21:00:00:Z","depth":"0","parameterNumber":2,"parameterNumberName":"U-component_of_CURRENTS"},"data":[0,0,0,0,0,0,0,0,0,0,0,0,0,0,0,0,0,0,0,0,0,0,0,0,0,0,0,0,0,0,0,0,0,0,0,0,0,0,0,0,0,0,0,0,0,0,0,0,0,0,0,0,0,0,0,0,0,0,0.176,0.1761,0,0.1816,0.1817,0.1817,0.1842,0.1842,0.1842,0.1842,0.1878,0.1879,0.188,0,0,0,0,0,0,0,0,0,0,0,0,0,0.17,0.17,0.176,0.1761,0.1762,0.1816,0.1817,0.1818,0.1842,0.1842,0.1842,0.1842,0.1878,0.1879,0.188,0,0,0,0,0,0,0,0,0,0,0,0,0,0.1737,0.1701,0.176,0.1781,0.1784,0.1816,0.1817,0.1818,0.1842,0.1842,0.1842,0.1842,0.1878,0.1879,0.188,0.1889,0,0,0.1885,0.1885,0,0,0,0,0,0,0,0,0.1735,0.1739,0.1777,0.178,0.1783,0.1823,0.1809,0.1841,0.1842,0.1819,0.1842,0.1842,0.1859,0.1862,0.1871,0.189,0.1892,0.1885,0.1886,0.1886,0.1887,0,0,0,0,0,0,0,0.1732,0.1737,0.1781,0.1778,0.1782,0.1797,0.1802,0.1815,0.1837,0.1821,0.1823,0.1831,0.186,0.1869,0.1872,0.1892,0.1885,0.1886,0.1887,0.1887,0.1941,0.1941,0,0,0,0,0,0,0.1726,0.1734,0.178,0.1783,0.1759,0.1798,0.1803,0.1809,0.1837,0.1842,0.1831,0.1832,0.1867,0.187,0.1873,0.1899,0.1886,0.1888,0.1888,0.194,0.1941,0.1942,0,0,0,0,0,0,0.1724,0.1729,0.1777,0.1761,0.1768,0.1799,0.1805,0.181,0.182,0.1845,0.1849,0.1835,0.1867,0.1871,0.1888,0.19,0.1888,0.189,0.194,0.194,0.1941,0.1942,0,0,0,0,0,0,0.1722,0.1728,0.1731,0.176,0.1769,0.1797,0.1806,0.1811,0.1826,0.1827,0.185,0.1854,0.1867,0.1886,0.189,0.1902,0.1891,0.1939,0.194,0.1941,0.1941,0.1943,0.1944,0,0,0,0,0,0.172,0.1729,0.173,0.1736,0.1771,0.1797,0.1803,0.1824,0.1826,0.1832,0.1848,0.1853,0.1896,0.1888,0.1892,0.1905,0.1938,0.194,0.1941,0.194,0.1942,0.1944,0,0,0,0,0,0,0.171,0.1733,0.1735,0.1752,0.1771,0.1802,0.1816,0.1822,0.184,0.1842,0.1858,0.1863,0.1887,0.1893,0.1883,0.1924,0.1919,0.1921,0.1917,0.1919,0.1921,0.1963,0.1892,0,0,0,0,0,0.1706,0.1715,0.1739,0.1751,0.1763,0.1785,0.1798,0.181,0.183,0.1838,0.1853,0.1872,0.1896,0.1903,0.1926,0.194,0.1987,0.1952,0.1954,0.1955,0.1992,0.2085,0.2099,0.1946,0.1946,0.1946,0,0,0.1705,0.172,0.1724,0.1749,0.1767,0.1788,0.1793,0.1815,0.1833,0.1839,0.1865,0.1879,0.1903,0.1928,0.1938,0.1932,0.2012,0.1956,0.1957,0.1995,0.2088,0.2103,0.2117,0.1947,0.1946,0.1946,0,0,0.1715,0.1721,0.1735,0.175,0.1776,0.179,0.1794,0.1821,0.1835,0.1856,0.1873,0.1908,0.1917,0.1959,0.1975,0.2,0.2022,0.198,0.2017,0.2105,0.212,0.2133,0.217,0.2187,0.1975,0.1975,0.1975,0,0.1717,0.1733,0.1743,0.1763,0.178,0.179,0.1812,0.1829,0.1855,0.1877,0.1865,0.1932,0.195,0.201,0.2019,0.2009,0.2037,0.2004,0.211,0.2124,0.2138,0.2173,0.2192,0.1975,0.1975,0.1975,0.1975,0,0.1737,0.1751,0.1763,0.1787,0.1804,0.1824,0.1848,0.1864,0.1874,0.1896,0.195,0.1983,0.2031,0.2029,0.2033,0.2125,0.2104,0.2105,0.2109,0.2154,0.2187,0.2206,0.1976,0.1975,0.1975,0.1975,0,0,0.1754,0.1773,0.1778,0.1794,0.1819,0.184,0.1867,0.1907,0.1936,0.1963,0.2019,0.2071,0.2092,0.2117,0.2125,0.2197,0.2301,0.2186,0.219,0.2228,0.2458,0.2252,0.2253,0.2311,0.2315,0.2318,0.2427,0,0.1773,0.1807,0.1809,0.1844,0.1872,0.1882,0.1907,0.194,0.1967,0.2017,0.2074,0.2126,0.212,0.2144,0.222,0.2281,0.2359,0.227,0.2406,0.241,0.2227,0.2272,0.2105,0.2172,0.2446,0.2449,0.2452,0,0.18,0.1823,0.1855,0.1885,0.1897,0.1908,0.1959,0.1982,0.2046,0.207,0.2136,0.2171,0.2275,0.2269,0.2429,0.2362,0.2431,0.2478,0.2483,0.2318,0.2242,0.218,0.2197,0.2085,0.2482,0.2479,0.2477,0,0.1826,0.1858,0.1882,0.1893,0.1924,0.1938,0.1954,0.2002,0.2028,0.2113,0.2142,0.2255,0.2309,0.2429,0.2495,0.2482,0.2657,0.2653,0.2541,0.2525,0.2428,0.2395,0.2366,0.2818,0.2817,0.2817,0.2817,0,0.1855,0.1876,0.1892,0.1909,0.1945,0.1957,0.1992,0.2023,0.2069,0.2104,0.2173,0.2219,0.2358,0.2444,0.2529,0.2557,0.2688,0.2569,0.2554,0.2411,0.2377,0.2308,0.2273,0.2821,0.282,0.2819,0.2819,0,0.188,0.1883,0.1922,0.1952,0.1957,0.1986,0.2001,0.2027,0.206,0.2111,0.214,0.2222,0.2309,0.241,0.2585,0.2559,0.2527,0.2633,0.2411,0.2365,0.209,0.206,0.1987,0.1949,0.2527,0.2522,0.2519,0,0.1895,0.1917,0.1955,0.1971,0.1979,0.2005,0.2016,0.2034,0.205,0.2097,0.2123,0.2203,0.2235,0.2344,0.2353,0.2427,0.2408,0.2279,0.2231,0.2055,0.2017,0.1952,0.1925,0.211,0.2103,0.2098,0.2093,0,0.1941,0.1949,0.1982,0.2007,0.2019,0.2021,0.2028,0.2031,0.2041,0.206,0.207,0.2093,0.2131,0.2079,0.2099,0.2128,0.2072,0.216,0.2088,0.1768,0.16,0.1559,0.2028,0.2045,0.205,0.2053,0.2056,0.2058,0.1981,0.2004,0.203,0.2046,0.2047,0.2009,0.1982,0.1975,0.1959,0.1926,0.1982,0.1941,0.1862,0.1841,0.1839,0.1626,0.1742,0.1549,0.1557,0.153,0.139,0.169,0.16,0.1602,0.1604,0.1606,0.1607,0,0.2019,0.2029,0.2057,0.204,0.2004,0.2006,0.1965,0.1904,0.184,0.1825,0.1795,0.1631,0.1501,0.1435,0.1196,0.1056,0.1067,0.0994,0.0931,0.0967,0.1335,0.1206,0.0891,0.0891,0.0891,0.0891,0.0892,0.0892,0.2045,0.2061,0.2053,0.1989,0.1959,0.1867,0.1822,0.1736,0.169,0.1519,0.1392,0.1353,0.1177,0.0854,0.0626,0.0612,0.0581,0.0448,0.0553,0.0835,0.089,0.0943,0.0814,0.0422,0.0421,0.0134,0.0131,0.0129]},{"header":{"parameterUnit":"m.s-1","parameterCategory":2,"la1":30.2991,"la2":30.254,"lo1":-89.0895,"lo2":-89.0444,"dy":0.0017,"dx":0.0017,"nx":28,"ny":28,"refTime":"2023-03-29T21:00:00:Z","depth":"0","parameterNumber":3,"parameterNumberName":"V-component_of_CURRENTS"},"data":[0,0,0,0,0,0,0,0,0,0,0,0,0,0,0,0,0,0,0,0,0,0,0,0,0,0,0,0,0,0,0,0,0,0,0,0,0,0,0,0,0,0,0,0,0,0,0,0,0,0,0,0,0,0,0,0,0,0,0.0408,0.0408,0,0.0458,0.0458,0.0459,0.0466,0.0466,0.0465,0.0465,0.0459,0.046,0.046,0,0,0,0,0,0,0,0,0,0,0,0,0,0.0337,0.0338,0.0408,0.0408,0.0409,0.0457,0.0458,0.0459,0.0466,0.0466,0.0465,0.0465,0.0459,0.046,0.046,0,0,0,0,0,0,0,0,0,0,0,0,0,0.0375,0.0339,0.0408,0.0418,0.042,0.0457,0.0458,0.0459,0.0466,0.0466,0.0465,0.0464,0.0459,0.046,0.046,0.0477,0,0,0.0461,0.0462,0,0,0,0,0,0,0,0,0.0373,0.0378,0.0416,0.0418,0.0419,0.0455,0.0431,0.0462,0.0467,0.0449,0.0465,0.0464,0.0453,0.0454,0.0466,0.0477,0.0476,0.0461,0.0462,0.0462,0.0462,0,0,0,0,0,0,0,0.0371,0.0376,0.0428,0.0417,0.0419,0.0427,0.0431,0.0438,0.0453,0.045,0.0451,0.0456,0.0453,0.0466,0.0466,0.0476,0.0461,0.0462,0.0462,0.0462,0.0545,0.0547,0,0,0,0,0,0,0.0364,0.0374,0.0426,0.0429,0.0394,0.0429,0.0434,0.0444,0.0455,0.0456,0.0457,0.0457,0.0465,0.0465,0.0466,0.0526,0.0462,0.0462,0.0463,0.0543,0.0545,0.0547,0,0,0,0,0,0,0.0363,0.0369,0.0424,0.0402,0.0409,0.043,0.0442,0.0446,0.0458,0.046,0.046,0.0466,0.0465,0.0465,0.0488,0.0524,0.0462,0.0463,0.0541,0.0544,0.0546,0.0621,0,0,0,0,0,0,0.036,0.0368,0.0376,0.0402,0.041,0.0451,0.0443,0.0447,0.0462,0.0462,0.0468,0.0467,0.0464,0.0488,0.0489,0.0524,0.0463,0.0538,0.0542,0.0545,0.0616,0.0626,0.0635,0,0,0,0,0,0.0358,0.0378,0.0376,0.0383,0.042,0.0452,0.0458,0.047,0.0463,0.0476,0.0487,0.0466,0.0511,0.049,0.049,0.0526,0.0536,0.0541,0.0545,0.0612,0.0624,0.0634,0,0,0,0,0,0,0.0356,0.0381,0.038,0.0407,0.0427,0.0453,0.047,0.0473,0.0493,0.0491,0.0487,0.0489,0.0526,0.0515,0.0491,0.0562,0.0522,0.0527,0.0573,0.0584,0.0593,0.0633,0.0464,0,0,0,0,0,0.0358,0.0377,0.0398,0.042,0.0431,0.0448,0.0463,0.047,0.0489,0.0497,0.0503,0.0517,0.0547,0.0554,0.0572,0.0603,0.06,0.0628,0.0637,0.0645,0.068,0.0728,0.0745,0.0562,0.0562,0.0561,0,0,0.0362,0.0379,0.0389,0.042,0.0437,0.0472,0.0456,0.0482,0.0517,0.0493,0.054,0.0547,0.0563,0.061,0.0625,0.0602,0.0685,0.0651,0.0657,0.0688,0.0734,0.0752,0.0768,0.0564,0.0564,0.0563,0,0,0.039,0.0397,0.0424,0.0444,0.0471,0.0487,0.0494,0.0521,0.054,0.0577,0.0584,0.0628,0.064,0.0688,0.0706,0.0779,0.0735,0.0761,0.0839,0.0884,0.09,0.0914,0.0884,0.0895,0.0763,0.0763,0.0763,0,0.0394,0.0434,0.0437,0.0472,0.05,0.0497,0.054,0.0563,0.0595,0.0631,0.0598,0.0692,0.0695,0.0797,0.0821,0.0805,0.0786,0.0791,0.0897,0.0912,0.0925,0.0891,0.0902,0.0767,0.0767,0.0766,0.0766,0,0.0446,0.0478,0.0498,0.0542,0.057,0.0605,0.0635,0.0667,0.0678,0.0708,0.0792,0.0814,0.0875,0.0879,0.087,0.0975,0.0913,0.0903,0.0869,0.0948,0.0906,0.0916,0.0773,0.0772,0.077,0.0769,0,0,0.0456,0.0522,0.0529,0.0563,0.0611,0.064,0.0707,0.0778,0.0834,0.0865,0.0955,0.1019,0.1027,0.1053,0.1054,0.1097,0.1151,0.1036,0.1037,0.1005,0.1189,0.1093,0.1094,0.1147,0.115,0.1153,0.1103,0,0.0497,0.0576,0.0601,0.0677,0.0721,0.0751,0.0816,0.0876,0.0918,0.0996,0.1053,0.1121,0.1092,0.1119,0.1169,0.1164,0.1189,0.1162,0.112,0.1118,0.1025,0.1109,0.1097,0.105,0.1113,0.1114,0.1116,0,0.0542,0.059,0.0673,0.0756,0.0778,0.0821,0.0926,0.0982,0.1088,0.1123,0.1212,0.1235,0.1329,0.1279,0.1332,0.1304,0.1265,0.1246,0.1244,0.1149,0.1046,0.0992,0.1065,0.1074,0.1131,0.113,0.1129,0,0.0554,0.0641,0.0711,0.0738,0.0828,0.0876,0.0924,0.1023,0.1084,0.1205,0.1256,0.1357,0.1395,0.141,0.1364,0.1349,0.1384,0.1355,0.1231,0.1219,0.1205,0.1188,0.1294,0.1405,0.1406,0.1406,0.1406,0,0.0597,0.0649,0.0717,0.0753,0.0826,0.0888,0.0978,0.1042,0.1154,0.1236,0.1315,0.139,0.1431,0.1446,0.1404,0.1339,0.1412,0.1272,0.1231,0.1221,0.1207,0.1207,0.1211,0.1404,0.1404,0.1405,0.1405,0,0.0608,0.0658,0.0723,0.0808,0.0831,0.0878,0.0974,0.105,0.1146,0.1258,0.1299,0.1415,0.1437,0.1435,0.1437,0.1365,0.1312,0.1277,0.1221,0.1175,0.1062,0.1069,0.1106,0.1106,0.115,0.1148,0.1146,0,0.0633,0.0668,0.0732,0.0758,0.0793,0.0864,0.0922,0.1027,0.1107,0.1263,0.1324,0.1392,0.1445,0.1399,0.1315,0.1227,0.1241,0.1123,0.1125,0.1085,0.1064,0.1063,0.1062,0.1106,0.1104,0.1103,0.1101,0,0.0657,0.0665,0.0709,0.0759,0.0807,0.0873,0.0961,0.1015,0.1152,0.1238,0.1346,0.1401,0.1381,0.1327,0.1204,0.1135,0.113,0.1081,0.1105,0.1108,0.1058,0.1025,0.1049,0.1087,0.1088,0.1089,0.109,0.1091,0.0654,0.0672,0.0715,0.0762,0.0817,0.089,0.0933,0.1033,0.1133,0.1258,0.1318,0.1392,0.1352,0.1207,0.1114,0.0968,0.1001,0.094,0.0962,0.0971,0.0969,0.0914,0.0865,0.0865,0.0865,0.0865,0.0865,0,0.0642,0.0672,0.0722,0.0778,0.0829,0.0869,0.0972,0.1014,0.1099,0.1215,0.1285,0.1303,0.1251,0.117,0.0995,0.0898,0.088,0.0869,0.0926,0.094,0.0955,0.0952,0.0843,0.0843,0.0843,0.0843,0.0843,0.0843,0.0642,0.0665,0.0697,0.0771,0.0818,0.0876,0.0922,0.098,0.1065,0.1129,0.117,0.1217,0.1235,0.1096,0.0985,0.0925,0.0934,0.0871,0.0893,0.0957,0.0968,0.0978,0.098,0.088,0.088,0.0889,0.0889,0.0889]}],[{"header":{"parameterUnit":"m.s-1","parameterCategory":2,"la1":30.2991,"la2":30.254,"lo1":-89.0895,"lo2":-89.0444,"dy":0.0017,"dx":0.0017,"nx":28,"ny":28,"refTime":"2023-03-29T21:00:00:Z","depth":"2","parameterNumber":2,"parameterNumberName":"U-component_of_CURRENTS"},"data":[0,0,0,0,0,0,0,0,0,0,0,0,0,0,0,0,0,0,0,0,0,0,0,0,0,0,0,0,0,0,0,0,0,0,0,0,0,0,0,0,0,0,0,0,0,0,0,0,0,0,0,0,0,0,0,0,0,0,0.1762,0.1763,0,0.1828,0.1828,0.1829,0.1856,0.1856,0.1857,0.1857,0.1898,0.1899,0.19,0,0,0,0,0,0,0,0,0,0,0,0,0,0.1667,0.1668,0.1762,0.1763,0.1765,0.1828,0.1828,0.1829,0.1856,0.1856,0.1857,0.1857,0.1898,0.1899,0.19,0,0,0,0,0,0,0,0,0,0,0,0,0,0.1715,0.1668,0.1762,0.1788,0.1791,0.1828,0.1828,0.1829,0.1856,0.1856,0.1857,0.1857,0.1898,0.1899,0.19,0.1906,0,0,0.1905,0.1906,0,0,0,0,0,0,0,0,0.1712,0.1718,0.1783,0.1786,0.179,0.1836,0.181,0.1855,0.1856,0.1829,0.1857,0.1857,0.1877,0.188,0.1889,0.1908,0.191,0.1905,0.1906,0.1907,0.1907,0,0,0,0,0,0,0,0.1709,0.1716,0.1785,0.1784,0.1788,0.1798,0.1805,0.1818,0.1848,0.1831,0.1834,0.1845,0.1878,0.1887,0.189,0.191,0.1905,0.1906,0.1907,0.1908,0.1965,0.1965,0,0,0,0,0,0,0.1706,0.1713,0.1783,0.1788,0.1754,0.18,0.1807,0.1819,0.1849,0.1855,0.1845,0.1847,0.1884,0.1888,0.1891,0.1925,0.1907,0.1908,0.1909,0.1964,0.1965,0.1966,0,0,0,0,0,0,0.1704,0.1712,0.1781,0.1754,0.1763,0.1802,0.1814,0.182,0.1834,0.186,0.1865,0.1854,0.1885,0.1889,0.1904,0.1926,0.1909,0.191,0.1963,0.1964,0.1965,0.1977,0,0,0,0,0,0,0.1701,0.171,0.1722,0.1754,0.1765,0.1803,0.1815,0.1822,0.1842,0.1844,0.1869,0.1873,0.1885,0.1902,0.1905,0.1928,0.1911,0.1963,0.1964,0.1965,0.1976,0.1978,0.198,0,0,0,0,0,0.1697,0.1717,0.1722,0.1732,0.1779,0.1803,0.1809,0.1835,0.1842,0.1847,0.1863,0.1872,0.1912,0.1903,0.1907,0.1931,0.1962,0.1964,0.1965,0.1975,0.1978,0.198,0,0,0,0,0,0,0.1677,0.1723,0.1729,0.176,0.1778,0.1809,0.1827,0.1835,0.1852,0.1857,0.1874,0.1879,0.1907,0.1911,0.19,0.1951,0.1942,0.1944,0.1948,0.1951,0.1953,0.1985,0.1912,0,0,0,0,0,0.1678,0.1708,0.1737,0.1759,0.1772,0.1796,0.1811,0.1823,0.1843,0.1852,0.1868,0.189,0.1916,0.1925,0.1947,0.1964,0.1987,0.1984,0.1986,0.1988,0.2018,0.2095,0.2108,0.197,0.197,0.197,0,0,0.1677,0.1706,0.1722,0.1757,0.1777,0.1798,0.1805,0.1829,0.1849,0.1853,0.1884,0.1899,0.1923,0.1951,0.1964,0.1956,0.2023,0.199,0.1991,0.2021,0.2098,0.2112,0.2124,0.1971,0.1971,0.1971,0,0,0.1692,0.1713,0.1744,0.1759,0.1791,0.1803,0.1808,0.1836,0.1854,0.1876,0.1895,0.1929,0.1945,0.1985,0.2002,0.203,0.2037,0.2021,0.2056,0.213,0.2142,0.2154,0.2134,0.2145,0.2018,0.2018,0.2018,0,0.1696,0.1728,0.1752,0.1778,0.1797,0.1804,0.1828,0.1846,0.1873,0.1899,0.1887,0.1961,0.1977,0.2041,0.2049,0.2042,0.2047,0.2041,0.2135,0.2148,0.2159,0.2137,0.2148,0.2019,0.2018,0.2018,0.2018,0,0.1722,0.1752,0.1769,0.1807,0.1824,0.1843,0.1868,0.1885,0.19,0.1925,0.1986,0.2014,0.2063,0.2067,0.2065,0.2153,0.2112,0.2132,0.2131,0.2174,0.2146,0.2158,0.202,0.2019,0.2019,0.2019,0,0,0.1745,0.1783,0.1792,0.1813,0.1841,0.1859,0.1891,0.1932,0.1966,0.1997,0.2056,0.211,0.213,0.2154,0.2163,0.2222,0.2282,0.2206,0.221,0.2189,0.2375,0.2168,0.2159,0.2317,0.232,0.2323,0.2297,0,0.1767,0.1812,0.1825,0.1866,0.1894,0.1906,0.1933,0.197,0.2001,0.2052,0.211,0.2162,0.2159,0.218,0.2246,0.228,0.2323,0.2283,0.2335,0.2335,0.2151,0.2171,0.2028,0.1979,0.2308,0.231,0.2312,0,0.18,0.183,0.1865,0.1907,0.1919,0.1936,0.1987,0.201,0.2078,0.2106,0.2175,0.2209,0.2292,0.229,0.239,0.2357,0.2378,0.2399,0.2399,0.2224,0.2152,0.2003,0.1988,0.2331,0.2329,0.2328,0.2327,0,0.1816,0.1865,0.189,0.1903,0.1942,0.1964,0.1981,0.2034,0.2064,0.2144,0.2173,0.2274,0.2316,0.2392,0.2414,0.2413,0.2505,0.251,0.234,0.2322,0.2222,0.2188,0.2613,0.2613,0.2613,0.2613,0.2613,0,0.1844,0.1876,0.1899,0.1919,0.196,0.1976,0.2019,0.2053,0.2101,0.2141,0.2201,0.2249,0.2354,0.2402,0.2433,0.2386,0.2519,0.2349,0.2322,0.2207,0.2174,0.2517,0.2506,0.2612,0.2613,0.2613,0.2613,0,0.1868,0.1878,0.1916,0.1952,0.197,0.1995,0.2031,0.2055,0.2093,0.2146,0.2171,0.2248,0.2278,0.2329,0.2426,0.2369,0.2377,0.2338,0.2133,0.208,0.2131,0.2122,0.2134,0.2127,0.2121,0.2116,0.2112,0,0.1882,0.1899,0.1936,0.1949,0.1967,0.2002,0.202,0.2058,0.2078,0.2137,0.2161,0.2201,0.219,0.2179,0.2136,0.209,0.2236,0.1904,0.189,0.212,0.2093,0.2093,0.2091,0.1744,0.1737,0.1732,0.1727,0,0.1902,0.1903,0.1906,0.1947,0.1968,0.2,0.2027,0.2035,0.2066,0.2086,0.2103,0.2089,0.2031,0.1879,0.1768,0.1757,0.1887,0.1777,0.2145,0.1856,0.1743,0.1718,0.1733,0.1677,0.1682,0.1686,0.1689,0.1691,0.1881,0.1888,0.1885,0.1917,0.1948,0.1973,0.1966,0.1971,0.1968,0.1935,0.1969,0.1824,0.1733,0.144,0.1392,0.1374,0.1512,0.1462,0.1486,0.1514,0.1443,0.1322,0.116,0.1162,0.1163,0.1165,0.1166,0,0.1843,0.186,0.187,0.1884,0.1894,0.1953,0.1952,0.1899,0.1853,0.1763,0.1705,0.1335,0.1163,0.1125,0.0993,0.0935,0.1021,0.0921,0.1043,0.1091,0.1134,0.1051,0.066,0.0659,0.0657,0.0656,0,0,0.1811,0.1795,0.1802,0.1811,0.1851,0.1848,0.1837,0.1755,0.1646,0.1394,0.1213,0.1134,0.1045,0.0793,0.0767,0.0706,0.0916,0.069,0.1098,0.1292,0.1334,0.1441,0.1362,0,0,0,0,0]},{"header":{"parameterUnit":"m.s-1","parameterCategory":2,"la1":30.2991,"la2":30.254,"lo1":-89.0895,"lo2":-89.0444,"dy":0.0017,"dx":0.0017,"nx":28,"ny":28,"refTime":"2023-03-29T21:00:00:Z","depth":"2","parameterNumber":3,"parameterNumberName":"V-component_of_CURRENTS"},"data":[0,0,0,0,0,0,0,0,0,0,0,0,0,0,0,0,0,0,0,0,0,0,0,0,0,0,0,0,0,0,0,0,0,0,0,0,0,0,0,0,0,0,0,0,0,0,0,0,0,0,0,0,0,0,0,0,0,0,0.0119,0.0119,0,0.0172,0.0172,0.0173,0.0201,0.0201,0.0201,0.0201,0.0241,0.0242,0.0242,0,0,0,0,0,0,0,0,0,0,0,0,0,0.0079,0.0079,0.0119,0.0119,0.012,0.0172,0.0172,0.0173,0.0201,0.0201,0.0201,0.0201,0.024,0.0241,0.0243,0,0,0,0,0,0,0,0,0,0,0,0,0,0.0109,0.0079,0.0118,0.0141,0.0144,0.0171,0.0172,0.0173,0.0201,0.0201,0.0201,0.0201,0.024,0.0241,0.0243,0.0247,0,0,0.0247,0.0248,0,0,0,0,0,0,0,0,0.0108,0.0111,0.0137,0.0139,0.0142,0.0181,0.0173,0.0197,0.0201,0.0178,0.0201,0.0201,0.022,0.0223,0.0231,0.0249,0.0251,0.0247,0.0248,0.0249,0.0249,0,0,0,0,0,0,0,0.0105,0.0109,0.0139,0.0138,0.0141,0.0161,0.0165,0.0178,0.0196,0.018,0.0182,0.019,0.0221,0.023,0.0232,0.0251,0.0247,0.0248,0.0249,0.025,0.0343,0.0344,0,0,0,0,0,0,0.0099,0.0106,0.0137,0.014,0.0126,0.0162,0.0166,0.0167,0.0196,0.0201,0.0189,0.0191,0.0227,0.0231,0.0234,0.0315,0.0249,0.025,0.0251,0.0341,0.0343,0.0345,0,0,0,0,0,0,0.0097,0.01,0.0135,0.0126,0.0132,0.0162,0.0163,0.0168,0.0201,0.0204,0.0208,0.0219,0.0228,0.0232,0.0265,0.0314,0.025,0.0252,0.0339,0.0342,0.0344,0.043,0,0,0,0,0,0,0.0096,0.0099,0.0116,0.0125,0.0132,0.0162,0.0163,0.0169,0.0204,0.0207,0.023,0.0233,0.0228,0.0263,0.0266,0.0315,0.0253,0.0337,0.034,0.0343,0.0425,0.0435,0.0444,0,0,0,0,0,0.0094,0.0114,0.0116,0.0121,0.0147,0.0163,0.0169,0.019,0.0205,0.022,0.024,0.0233,0.0285,0.0265,0.0269,0.0319,0.0336,0.0339,0.0343,0.0421,0.0433,0.0444,0,0,0,0,0,0,0.0099,0.0118,0.0121,0.0144,0.0156,0.0168,0.0197,0.0206,0.0235,0.0248,0.0249,0.0253,0.0303,0.0295,0.0273,0.0354,0.0311,0.0316,0.037,0.0381,0.039,0.041,0.0254,0,0,0,0,0,0.0107,0.0134,0.0139,0.0161,0.0171,0.0188,0.0206,0.0216,0.0235,0.025,0.027,0.0292,0.0318,0.0336,0.0351,0.0392,0.0343,0.0427,0.0437,0.0445,0.0463,0.0443,0.0452,0.0357,0.0357,0.0357,0,0,0.0113,0.0131,0.0145,0.0166,0.0183,0.0207,0.02,0.0232,0.0267,0.0249,0.0316,0.0326,0.0335,0.0384,0.0407,0.0386,0.0434,0.0449,0.0456,0.0471,0.0448,0.0457,0.0465,0.0359,0.0359,0.0358,0,0,0.0142,0.0156,0.019,0.0209,0.0239,0.0242,0.0255,0.0281,0.0312,0.0357,0.0364,0.0404,0.0438,0.0463,0.0476,0.0546,0.0482,0.0552,0.0621,0.0602,0.0609,0.0615,0.0508,0.0504,0.0559,0.0559,0.056,0,0.0155,0.0191,0.02,0.0239,0.0263,0.0261,0.0294,0.0324,0.0361,0.0393,0.039,0.0468,0.048,0.0547,0.0581,0.0571,0.0514,0.0578,0.0613,0.0619,0.0624,0.0512,0.0507,0.0564,0.0563,0.0563,0.0563,0,0.0196,0.0242,0.0266,0.0311,0.033,0.0362,0.0386,0.0423,0.0453,0.0478,0.0556,0.0575,0.0619,0.0637,0.0637,0.0696,0.0623,0.0623,0.0583,0.0638,0.0516,0.0509,0.0571,0.0569,0.0568,0.0566,0,0,0.0197,0.0279,0.0295,0.0327,0.0375,0.0384,0.0452,0.0498,0.0543,0.0596,0.0656,0.0731,0.0741,0.0759,0.0766,0.0771,0.0745,0.0725,0.0722,0.0613,0.0631,0.0633,0.0623,0.075,0.0751,0.0752,0.0509,0,0.0234,0.0302,0.0344,0.0412,0.0439,0.0474,0.0526,0.057,0.0613,0.0668,0.0718,0.0776,0.0787,0.0815,0.0826,0.0778,0.074,0.0806,0.0598,0.0591,0.0586,0.0623,0.0655,0.045,0.0501,0.05,0.0499,0,0.0273,0.0308,0.0373,0.045,0.0468,0.0516,0.058,0.0621,0.0697,0.0745,0.0816,0.0837,0.0887,0.0875,0.0811,0.0849,0.0753,0.0696,0.0685,0.0664,0.0585,0.0416,0.0434,0.0486,0.0487,0.0488,0.0489,0,0.0242,0.0342,0.0386,0.0414,0.0486,0.0545,0.0582,0.0653,0.0687,0.0795,0.0824,0.0885,0.0904,0.0841,0.0748,0.0776,0.0619,0.0627,0.0515,0.0507,0.0486,0.048,0.0552,0.0553,0.0553,0.0554,0.0555,0,0.0267,0.0321,0.0387,0.0411,0.0465,0.0527,0.0592,0.0657,0.0731,0.0788,0.0856,0.0888,0.0905,0.0826,0.0728,0.0593,0.0588,0.0531,0.0475,0.0511,0.051,0.0523,0.0523,0.0545,0.0547,0.0549,0.055,0,0.0252,0.0308,0.0337,0.041,0.0457,0.0475,0.0581,0.0616,0.0705,0.0779,0.0819,0.0872,0.0816,0.0741,0.0618,0.0562,0.0429,0.0359,0.0365,0.0321,0.0317,0.0325,0.0233,0.0232,0.0231,0.023,0.0229,0,0.0253,0.026,0.0296,0.0311,0.0369,0.043,0.0481,0.0596,0.0646,0.0761,0.0784,0.0782,0.0794,0.0581,0.0506,0.0327,0.0318,0.0229,0.0343,0.0345,0.0298,0.0307,0.0315,0.0286,0.0286,0.0286,0.0286,0,0.0194,0.0192,0.0168,0.0216,0.0278,0.035,0.0456,0.0485,0.0632,0.0696,0.0753,0.077,0.0687,0.0589,0.0413,0.0303,0.0291,0.0223,0.0214,0.0403,0.0389,0.0345,0.0352,0.0284,0.0284,0.0284,0.0284,0.0285,0.0085,0.0042,0.0022,0.0078,0.0184,0.0315,0.0367,0.0475,0.055,0.0706,0.0702,0.075,0.0708,0.0508,0.0362,0.0239,0.0258,0.0222,0.0225,0.0227,0.0319,0.0309,0.0198,0.0198,0.0197,0.0197,0.0197,0,-0.0051,-0.0054,-0.007,0.001,0.0145,0.0285,0.0398,0.0434,0.056,0.0677,0.0766,0.0664,0.0594,0.0491,0.034,0.0254,0.0261,0.02,0.0246,0.0248,0.025,0.0346,0.0229,0.0229,0.0229,0.0229,0,0,-0.0152,-0.0202,-0.019,-0.0018,0.0141,0.0359,0.0454,0.0488,0.0554,0.0613,0.0686,0.0761,0.0645,0.0532,0.0417,0.0328,0.0305,0.0301,0.0288,0.036,0.0363,0.0277,0.0429,0,0,0,0,0]}],[{"header":{"parameterUnit":"m.s-1","parameterCategory":2,"la1":30.2991,"la2":30.254,"lo1":-89.0895,"lo2":-89.0444,"dy":0.0017,"dx":0.0017,"nx":28,"ny":28,"refTime":"2023-03-29T21:00:00:Z","depth":"4","parameterNumber":2,"parameterNumberName":"U-component_of_CURRENTS"},"data":[0,0,0,0,0,0,0,0,0,0,0,0,0,0,0,0,0,0,0,0,0,0,0,0,0,0,0,0,0,0,0,0,0,0,0,0,0,0,0,0,0,0,0,0,0,0,0,0,0,0,0,0,0,0,0,0,0,0,0.011,0.0109,0,0.0027,0.0027,0.0026,0.0034,0.0035,0.0036,0.0037,0.0066,0.0065,0.0065,0,0,0,0,0,0,0,0,0,0,0,0,0,0.0289,0.0286,0.0111,0.0109,0.0108,0.0027,0.0026,0.0026,0.0034,0.0035,0.0036,0.0038,0.0066,0.0065,0.0065,0,0,0,0,0,0,0,0,0,0,0,0,0,0.0212,0.0285,0.0111,0.01,0.0098,0.0028,0.0026,0.0025,0.0034,0.0035,0.0037,0.0038,0.0066,0.0065,0.0065,0.0032,0,0,0.0064,0.0064,0,0,0,0,0,0,0,0,0.0217,0.0206,0.0103,0.0101,0.0098,0.004,0.01,0.0032,0.0033,0.0061,0.0037,0.0039,0.0064,0.0064,0.0048,0.0034,0.0035,0.0064,0.0064,0.0064,0.0064,0,0,0,0,0,0,0,0.0222,0.021,0.0081,0.0101,0.0099,0.0104,0.0095,0.0087,0.006,0.0059,0.0059,0.0044,0.0065,0.0048,0.0049,0.0035,0.0064,0.0064,0.0064,0.0064,0.012,0.0122,0,0,0,0,0,0,0.0223,0.0214,0.0083,0.0078,0.0159,0.0099,0.0089,0.006,0.0057,0.0056,0.0043,0.0045,0.0048,0.0049,0.005,0.0125,0.0064,0.0063,0.0063,0.0119,0.0121,0.0123,0,0,0,0,0,0,0.0227,0.0212,0.0086,0.0143,0.0127,0.0094,0.0061,0.0057,0.0078,0.0043,0.0046,0.0072,0.0049,0.005,0.0078,0.0122,0.0063,0.0063,0.0117,0.0119,0.0122,0.0202,0,0,0,0,0,0,0.0232,0.0213,0.0211,0.0142,0.0124,0.0061,0.0059,0.0054,0.0063,0.0066,0.0068,0.007,0.005,0.0078,0.0077,0.0121,0.0063,0.0115,0.0118,0.0121,0.0197,0.0207,0.0216,0,0,0,0,0,0.0239,0.0219,0.0211,0.0196,0.0115,0.006,0.0052,0.0036,0.0063,0.0065,0.0082,0.0072,0.0099,0.0079,0.0078,0.0122,0.0113,0.0117,0.0121,0.0193,0.0205,0.0215,0,0,0,0,0,0,0.0291,0.0216,0.0206,0.0165,0.0126,0.0061,0.0063,0.0059,0.0071,0.0095,0.0083,0.0084,0.0125,0.0112,0.0091,0.0149,0.0109,0.0112,0.0164,0.0175,0.0184,0.0206,0.0063,0,0,0,0,0,0.03,0.0271,0.0204,0.0174,0.0162,0.0126,0.0113,0.01,0.0088,0.0096,0.0107,0.0123,0.013,0.0146,0.0144,0.0171,0.0143,0.0203,0.0212,0.022,0.0237,0.0198,0.0205,0.0135,0.0135,0.0135,0,0,0.0309,0.0267,0.0249,0.0185,0.0162,0.0143,0.0124,0.0109,0.0113,0.0098,0.0143,0.0152,0.0144,0.0175,0.0194,0.0177,0.023,0.0225,0.0231,0.0245,0.0203,0.0209,0.0215,0.0138,0.0137,0.0137,0,0,0.0306,0.0282,0.026,0.0233,0.0196,0.0177,0.0186,0.0155,0.0168,0.0187,0.0192,0.023,0.0242,0.0247,0.0248,0.0306,0.0274,0.0323,0.0392,0.0354,0.0359,0.0363,0.0353,0.0356,0.0333,0.0333,0.0333,0,0.0325,0.028,0.0249,0.0225,0.0211,0.0204,0.0191,0.0193,0.0185,0.0202,0.0217,0.0267,0.027,0.0304,0.0344,0.0327,0.0311,0.0349,0.0364,0.0367,0.037,0.0359,0.036,0.0337,0.0337,0.0336,0.0336,0,0.0296,0.0277,0.0268,0.024,0.0229,0.0215,0.0206,0.0234,0.0269,0.0268,0.0325,0.0337,0.0369,0.0387,0.0392,0.0434,0.042,0.0372,0.0333,0.0382,0.0367,0.0367,0.0344,0.0342,0.0341,0.034,0,0,0.0288,0.0254,0.0256,0.0243,0.0237,0.0213,0.0254,0.0262,0.029,0.0332,0.0368,0.0427,0.0461,0.0468,0.0486,0.0487,0.0511,0.0467,0.0463,0.0453,0.0456,0.0463,0.0463,0.0464,0.0465,0.0465,0.0445,0,0.028,0.0239,0.0237,0.0227,0.0205,0.0228,0.0252,0.0272,0.0311,0.0351,0.0398,0.0436,0.048,0.0515,0.0531,0.051,0.0513,0.0523,0.0415,0.0413,0.0407,0.0463,0.0465,0.0444,0.0444,0.0444,0.0444,0,0.0255,0.0226,0.0201,0.0199,0.0198,0.0209,0.0251,0.027,0.0331,0.0365,0.044,0.0471,0.0541,0.0538,0.0553,0.0561,0.0536,0.0511,0.0507,0.0486,0.042,0.0381,0.0444,0.0444,0.0444,0.0444,0.0444,0,0.0229,0.0212,0.0193,0.0184,0.0178,0.02,0.023,0.0281,0.0307,0.0386,0.0417,0.0492,0.0525,0.0523,0.0546,0.054,0.0525,0.0477,0.0456,0.0455,0.0415,0.0411,0.0455,0.0455,0.0455,0.0455,0.0456,0,0.0197,0.0179,0.018,0.0152,0.0148,0.0175,0.0204,0.0245,0.0316,0.0351,0.0432,0.0464,0.052,0.0536,0.054,0.0531,0.0514,0.0492,0.0454,0.0454,0.0454,0.0416,0.0412,0.0455,0.0455,0.0455,0.0455,0,0.0132,0.0143,0.0099,0.0104,0.0119,0.011,0.0179,0.0209,0.0281,0.0334,0.0367,0.0442,0.0477,0.0523,0.0506,0.0508,0.0489,0.0472,0.0511,0.0471,0.0446,0.0446,0.0445,0.0445,0.0445,0.0445,0.0445,0,0.0083,0.005,0.0039,0.0038,0.0039,0.0059,0.0091,0.0179,0.0222,0.0311,0.033,0.0393,0.0446,0.0438,0.0477,0.0494,0.0479,0.0472,0.0453,0.0484,0.0446,0.0447,0.0447,0.0445,0.0445,0.0445,0.0445,0,-0.0039,-0.0036,-0.007,-0.0062,-0.0036,-0.0018,0.0046,0.0066,0.0179,0.0248,0.0301,0.0349,0.038,0.0417,0.0454,0.045,0.0489,0.0473,0.0472,0.0454,0.0484,0.0447,0.0447,0.0446,0.0446,0.0446,0.0446,0,-0.0128,-0.0162,-0.0166,-0.0153,-0.0126,-0.0086,-0.0057,0.0021,0.0076,0.021,0.0213,0.0288,0.0357,0.0389,0.0409,0.0444,0.0426,0.0405,0.0407,0.0407,0.0413,0.0448,0.0384,0,0,0,0,0,-0.0206,-0.0209,-0.023,-0.0203,-0.0174,-0.0136,-0.0072,-0.0025,0.0082,0.0117,0.0181,0.0225,0.0295,0.0313,0.0343,0.0378,0.0413,0.0409,0.0384,0.0448,0.0448,0.0464,0,0,0,0,0,0,-0.0242,-0.0272,-0.0255,-0.0235,-0.0207,-0.0162,-0.0126,-0.0061,-0.0032,0.0075,0.0102,0.0212,0.0263,0.0284,0.0338,0.0353,0.0333,0.0473,0.0473,0.0448,0.0448,0.0448,0.0464,0,0,0,0,0]},{"header":{"parameterUnit":"m.s-1","parameterCategory":2,"la1":30.2991,"la2":30.254,"lo1":-89.0895,"lo2":-89.0444,"dy":0.0017,"dx":0.0017,"nx":28,"ny":28,"refTime":"2023-03-29T21:00:00:Z","depth":"4","parameterNumber":3,"parameterNumberName":"V-component_of_CURRENTS"},"data":[0,0,0,0,0,0,0,0,0,0,0,0,0,0,0,0,0,0,0,0,0,0,0,0,0,0,0,0,0,0,0,0,0,0,0,0,0,0,0,0,0,0,0,0,0,0,0,0,0,0,0,0,0,0,0,0,0,0,-0.0078,-0.0079,0,-0.0103,-0.0103,-0.0104,-0.0095,-0.0095,-0.0094,-0.0093,-0.018,-0.0183,-0.0185,0,0,0,0,0,0,0,0,0,0,0,0,0,-0.0074,-0.0074,-0.0078,-0.0079,-0.0079,-0.0103,-0.0103,-0.0104,-0.0095,-0.0095,-0.0094,-0.0093,-0.0179,-0.0182,-0.0186,0,0,0,0,0,0,0,0,0,0,0,0,0,-0.0085,-0.0073,-0.0078,-0.0077,-0.0077,-0.0103,-0.0103,-0.0104,-0.0095,-0.0094,-0.0094,-0.0093,-0.0178,-0.0182,-0.0186,-0.023,0,0,-0.0199,-0.0201,0,0,0,0,0,0,0,0,-0.0084,-0.0085,-0.0077,-0.0077,-0.0078,-0.0095,-0.0133,-0.0149,-0.0096,-0.0089,-0.0093,-0.0092,-0.0158,-0.0163,-0.017,-0.0234,-0.0237,-0.0199,-0.0202,-0.0204,-0.0205,0,0,0,0,0,0,0,-0.0083,-0.0084,-0.0088,-0.0078,-0.0078,-0.0093,-0.0093,-0.0136,-0.0129,-0.0089,-0.0089,-0.0091,-0.0158,-0.0165,-0.0172,-0.0239,-0.0199,-0.0203,-0.0206,-0.0207,-0.0356,-0.0357,0,0,0,0,0,0,-0.0078,-0.0083,-0.0088,-0.0089,-0.0079,-0.0093,-0.0094,-0.009,-0.0127,-0.0131,-0.0092,-0.0091,-0.0159,-0.0167,-0.0175,-0.0241,-0.0204,-0.0208,-0.021,-0.0354,-0.0356,-0.0357,0,0,0,0,0,0,-0.0078,-0.0078,-0.0087,-0.0087,-0.0089,-0.0094,-0.0091,-0.0091,-0.0098,-0.0129,-0.0134,-0.0098,-0.0158,-0.0169,-0.0216,-0.0243,-0.021,-0.0214,-0.0353,-0.0355,-0.0357,-0.0365,0,0,0,0,0,0,-0.0078,-0.0078,-0.0079,-0.0086,-0.0089,-0.0098,-0.0092,-0.0092,-0.0101,-0.01,-0.0136,-0.0143,-0.0158,-0.0209,-0.022,-0.0249,-0.0217,-0.0351,-0.0354,-0.0356,-0.0363,-0.0367,-0.0371,0,0,0,0,0,-0.0077,-0.0083,-0.0079,-0.008,-0.0088,-0.0098,-0.0101,-0.0102,-0.0102,-0.0106,-0.0134,-0.0141,-0.0233,-0.0214,-0.0226,-0.0257,-0.035,-0.0353,-0.0356,-0.0361,-0.0366,-0.037,0,0,0,0,0,0,-0.0086,-0.0083,-0.0078,-0.0083,-0.0088,-0.0096,-0.0106,-0.0107,-0.0132,-0.0135,-0.0161,-0.017,-0.0226,-0.0241,-0.0219,-0.0308,-0.0293,-0.0299,-0.0293,-0.0298,-0.0302,-0.0303,-0.022,0,0,0,0,0,-0.0088,-0.0086,-0.0088,-0.0092,-0.0096,-0.0103,-0.011,-0.0108,-0.0128,-0.0137,-0.0166,-0.0204,-0.025,-0.0271,-0.0312,-0.036,-0.0348,-0.0388,-0.0392,-0.0395,-0.0404,-0.0417,-0.0422,-0.0368,-0.0368,-0.0368,0,0,-0.0095,-0.0091,-0.0092,-0.0093,-0.01,-0.0112,-0.0105,-0.0115,-0.0132,-0.0147,-0.019,-0.0223,-0.0267,-0.032,-0.0346,-0.0334,-0.0397,-0.0399,-0.0401,-0.0409,-0.042,-0.0425,-0.043,-0.037,-0.0369,-0.0369,0,0,-0.0107,-0.0104,-0.0107,-0.011,-0.0115,-0.0122,-0.0125,-0.0139,-0.0152,-0.0193,-0.0216,-0.0261,-0.0323,-0.0359,-0.0386,-0.0439,-0.0421,-0.0453,-0.047,-0.0482,-0.0486,-0.0489,-0.0441,-0.044,-0.0449,-0.0449,-0.0449,0,-0.0115,-0.0113,-0.0112,-0.0117,-0.0121,-0.0128,-0.0136,-0.0159,-0.0188,-0.0205,-0.0208,-0.0307,-0.0345,-0.0412,-0.0434,-0.0449,-0.0429,-0.0445,-0.0484,-0.0488,-0.0492,-0.0442,-0.0441,-0.045,-0.045,-0.045,-0.045,0,-0.0126,-0.0127,-0.0133,-0.0138,-0.0145,-0.0153,-0.0175,-0.0197,-0.0217,-0.0236,-0.0301,-0.0352,-0.0402,-0.0431,-0.0455,-0.0509,-0.0474,-0.0488,-0.0466,-0.0497,-0.0442,-0.0441,-0.0451,-0.0451,-0.0451,-0.0451,0,0,-0.0136,-0.0138,-0.014,-0.0131,-0.0152,-0.0149,-0.0195,-0.0224,-0.023,-0.0292,-0.0309,-0.042,-0.0433,-0.0466,-0.05,-0.0527,-0.053,-0.0521,-0.0521,-0.0459,-0.0506,-0.0466,-0.0459,-0.0546,-0.0547,-0.0548,-0.0441,0,-0.0143,-0.0137,-0.0148,-0.0151,-0.0148,-0.017,-0.0195,-0.0223,-0.0251,-0.0271,-0.0348,-0.038,-0.045,-0.0457,-0.0508,-0.0525,-0.0534,-0.0554,-0.0497,-0.0495,-0.0446,-0.0461,-0.0551,-0.044,-0.044,-0.044,-0.044,0,-0.0153,-0.0139,-0.0139,-0.0125,-0.0126,-0.0135,-0.0147,-0.0171,-0.0219,-0.0237,-0.0301,-0.0336,-0.0409,-0.0443,-0.0506,-0.0511,-0.0517,-0.0528,-0.0524,-0.049,-0.0455,-0.0416,-0.0437,-0.0438,-0.0438,-0.0438,-0.0438,0,-0.0137,-0.0133,-0.0123,-0.0123,-0.012,-0.0125,-0.0128,-0.0161,-0.0152,-0.0206,-0.0189,-0.0291,-0.03,-0.0372,-0.0421,-0.0454,-0.0445,-0.0482,-0.0447,-0.044,-0.0501,-0.0499,-0.0514,-0.0514,-0.0515,-0.0515,-0.0515,0,-0.0134,-0.0122,-0.0107,-0.0098,-0.0059,-0.0083,-0.0052,-0.0076,-0.0083,-0.0062,-0.0161,-0.0157,-0.0285,-0.0302,-0.0373,-0.0392,-0.0404,-0.0448,-0.0426,-0.0501,-0.05,-0.0496,-0.0496,-0.0511,-0.0512,-0.0513,-0.0513,0,-0.0111,-0.0117,-0.0081,-0.0061,-0.005,-0.0015,0.0031,0.0064,0.0028,0.0057,0.0049,-0.0025,-0.0073,-0.016,-0.0228,-0.029,-0.0329,-0.0325,-0.034,-0.0319,-0.0322,-0.0324,-0.0285,-0.0283,-0.0281,-0.028,-0.0279,0,-0.0096,-0.0082,-0.0028,0.002,0.0035,0.0085,0.0133,0.0123,0.0154,0.0134,0.0158,0.0122,0.0058,0.0006,-0.0111,-0.0198,-0.0235,-0.0222,-0.036,-0.0324,-0.0306,-0.031,-0.0314,-0.0276,-0.0276,-0.0275,-0.0275,0,-0.0042,-0.0027,0.002,0.0098,0.0162,0.0244,0.0292,0.0308,0.0286,0.029,0.0253,0.0181,0.0148,0.0028,-0.0011,-0.0098,-0.023,-0.0207,-0.0213,-0.0342,-0.0313,-0.0298,-0.0303,-0.0269,-0.027,-0.027,-0.0271,0,0.0021,0.0068,0.0114,0.0186,0.0284,0.0344,0.0359,0.038,0.0393,0.0333,0.0337,0.024,0.0193,0.0088,0.0037,-0.003,-0.009,-0.0139,-0.015,-0.0157,-0.0186,-0.0134,-0.0012,0,0,0,0,0,0.0089,0.0127,0.0197,0.0257,0.0354,0.0396,0.045,0.0444,0.0412,0.0404,0.0355,0.0304,0.0185,0.0131,0.0067,0.0048,-0.0098,-0.0027,-0.0158,-0.0237,-0.0244,-0.03,0,0,0,0,0,0,0.0136,0.0203,0.0203,0.0303,0.0353,0.0442,0.0477,0.0452,0.0425,0.0382,0.032,0.0298,0.0186,0.0223,0.0068,0.0049,-0.0042,-0.0076,-0.0077,-0.0233,-0.0239,-0.0245,-0.0305,0,0,0,0,0]}]]